Startpagina
METAR-TAF:

METAR-TAF

Vliegvelden :

Aérodrome de Pontoise-Cormeilles-en-Vexin

Pontoise, Frankrijk

breedte: 49-05-48N, lengte: 002-02-27E, hoogte: 99 m

Actueel weer

Dit bericht is 37 minuten geleden gemaakt, om 11:00 UTC
Wind 13 kt uit het westzuidwesten, variërend tussen het zuidzuidwesten en het westen
Temperatuur 22°C
Vochtigheid 57%
Druk 1019 hPa
Zicht 10 km of meer
Gebroken wolken op 3200 ft

METAR: LFPT 191100Z AUTO 24013KT 210V270 9999 BKN032 22/13 Q1019

Tijdstip: 13:37 (11:37 UTC)


TAF: ontbreekt

Waarnemingen en weersverwachtingen van meer dan 4000 vliegvelden (METAR en TAF).

De beschikbare stations zijn de gele en rode punten op de kaart.

Ga met uw muis naar het station om de naam te zien.

Klik dan om waarnemingen en weersverwachtingen te zien.

kaart wijzigen: klik op de groene knoppen met een zwart kruis om in te zoomen, op de groene knop met een streepje om uit te zoomen of op de groene pijlen voor aangrenzende kaarten.


METAR-TAF: